Weather History for LFMI - March, 2013

Change the Weather History Date:

Wednesday, March 20, 2013

  Actual Average (LFML) Record (LFML)
Temperature  
Mean Temperature 52 °F -  
Max Temperature 60 °F 61 °F 73 °F (2002)
Min Temperature 44 °F 43 °F 35 °F (2012)
Degree Days  
Heating Degree Days 13    
Growing Degree Days 2 (Base 50)    
Moisture  
Dew Point 40 °F    
Average Humidity 68    
Maximum Humidity 93    
Minimum Humidity 34    
Precipitation  
Precipitation 0.00 in - - ()
Sea Level Pressure  
Sea Level Pressure 29.73 in    
Wind  
Wind Speed 10 mph ()    
Max Wind Speed 22 mph    
Max Gust Speed 37 mph    
Visibility 6.1 miles    
Events Rain    
Averages and records for this station are not official NWS values.
T = Trace of Precipitation, MM = Missing Value Source: Averaged Metar Reports

Daily Weather History Graph

Daily Weather History Graph

Search for Another Location

Airport or City:

Trip Planner

Search our weather history database for the weather conditions in past years. The results will help you decide how hot, cold, wet, or windy it might be!

Date:

Astronomy

Mar. 20, 2013 Rise Set
Actual Time 6:43 AM CET 6:52 PM CET
Civil Twilight 6:14 AM CET 7:21 PM CET
Nautical Twilight 5:41 AM CET 7:54 PM CET
Astronomical Twilight 5:07 AM CET 8:29 PM CET
Moon 12:04 PM CET (3/20) 2:21 AM CET (3/20)
Length of Visible Light 13h 06m
Length of Day
12h 09m
First Quarter, 57% of the Moon is Illuminated
Mar 20
First Quarter
Mar 27
Full
Apr 3
Last Quarter
Apr 10
New
Apr 18
First Quarter

Hourly Weather History & Observations

Time (CET) Temp. Windchill Dew Point Humidity Pressure Visibility Wind Dir Wind Speed Gust Speed Precip Events Conditions
12:00 AM 48.2 °F - 37.4 °F 66% 29.62 in 6.2 mi East 8.1 mph - N/A   Unknown
12:30 AM 48.2 °F - 39.2 °F 71% 29.65 in 6.2 mi East 6.9 mph - N/A   Mostly Cloudy
1:00 AM 48.2 °F - 39.2 °F 71% 29.62 in 6.2 mi East 6.9 mph - N/A   Overcast
1:30 AM 48.2 °F - 39.2 °F 71% 29.62 in 6.2 mi East 9.2 mph - N/A   Overcast
2:00 AM 48.2 °F - 37.4 °F 66% 29.62 in 6.2 mi ENE 5.8 mph - N/A   Overcast
2:30 AM 46.4 °F 42.9 °F 37.4 °F 71% 29.62 in 6.2 mi NNE 6.9 mph - N/A   Unknown
3:00 AM 46.4 °F 43.5 °F 37.4 °F 71% 29.59 in 6.2 mi NE 5.8 mph - N/A   Mostly Cloudy
3:30 AM 48.2 °F - 39.2 °F 71% 29.59 in 6.2 mi NE 8.1 mph - N/A Rain Rain
4:00 AM 46.4 °F 42.9 °F 41.0 °F 81% 29.59 in 6.2 mi NE 6.9 mph - N/A Rain Light Rain
4:30 AM 44.6 °F 39.2 °F 41.0 °F 87% 29.59 in 6.2 mi NE 10.4 mph - N/A Rain Rain
5:00 AM 46.4 °F 40.4 °F 42.8 °F 87% 29.59 in 6.2 mi NE 13.8 mph - N/A Rain Light Rain
5:30 AM 46.4 °F 41.1 °F 42.8 °F 87% 29.59 in 6.2 mi NE 11.5 mph - N/A Rain Light Rain
6:00 AM 46.4 °F 41.1 °F 42.8 °F 87% 29.59 in 6.2 mi NE 11.5 mph - N/A Rain Light Rain
6:30 AM 46.4 °F 40.7 °F 42.8 °F 87% 29.62 in 4.3 mi NNE 12.7 mph - N/A Rain Rain
7:00 AM 46.4 °F 41.1 °F 44.6 °F 93% 29.62 in 5.0 mi NNE 11.5 mph - N/A Rain Rain
7:30 AM 46.4 °F 41.9 °F 42.8 °F 87% 29.62 in 4.3 mi NE 9.2 mph - N/A   Overcast
8:00 AM 46.4 °F 41.5 °F 42.8 °F 87% 29.65 in 5.6 mi NE 10.4 mph - N/A   Overcast
8:30 AM 46.4 °F 41.1 °F 42.8 °F 87% 29.65 in 6.2 mi ENE 11.5 mph - N/A   Overcast
9:00 AM 46.4 °F 42.4 °F 42.8 °F 87% 29.68 in 6.2 mi NE 8.1 mph - N/A   Mostly Cloudy
9:30 AM 46.4 °F 41.9 °F 44.6 °F 93% 29.68 in 6.2 mi North 9.2 mph - N/A   Mostly Cloudy
10:00 AM 46.4 °F 41.5 °F 44.6 °F 93% 29.71 in 6.2 mi NNE 10.4 mph - N/A   Mostly Cloudy
10:30 AM 50.0 °F - 46.4 °F 87% 29.71 in 6.2 mi NNE 11.5 mph - N/A   Mostly Cloudy
11:00 AM 50.0 °F - 44.6 °F 82% 29.71 in 6.2 mi NNE 10.4 mph - N/A   Unknown
11:30 AM 51.8 °F - 44.6 °F 76% 29.74 in 6.2 mi North 9.2 mph - N/A   Unknown
12:00 PM 53.6 °F - 44.6 °F 72% 29.74 in 6.2 mi North 8.1 mph - N/A   Overcast
12:30 PM 53.6 °F - 44.6 °F 72% 29.74 in 6.2 mi NNW 12.7 mph - N/A   Mostly Cloudy
1:00 PM 55.4 °F - 46.4 °F 72% 29.74 in 6.2 mi NW 13.8 mph - N/A   Mostly Cloudy
1:30 PM 57.2 °F - 44.6 °F 63% 29.74 in 6.2 mi NW 16.1 mph - N/A   Mostly Cloudy
2:00 PM 59.0 °F - 41.0 °F 51% 29.74 in 6.2 mi NNW 16.1 mph - N/A   Mostly Cloudy
2:30 PM 60.8 °F - 42.8 °F 52% 29.74 in 6.2 mi NW 19.6 mph - N/A   Mostly Cloudy
3:00 PM 60.8 °F - 41.0 °F 48% 29.74 in 6.2 mi NW 17.3 mph - N/A   Mostly Cloudy
3:30 PM 59.0 °F - 39.2 °F 48% 29.74 in 6.2 mi NNW 13.8 mph - N/A   Unknown
4:00 PM 59.0 °F - 35.6 °F 42% 29.74 in 6.2 mi NNW 17.3 mph - N/A   Unknown
4:30 PM 60.8 °F - 35.6 °F 39% 29.77 in 6.2 mi North 17.3 mph - N/A   Unknown
5:00 PM 60.8 °F - 33.8 °F 36% 29.77 in 6.2 mi NW 20.7 mph - N/A   Unknown
5:30 PM 60.8 °F - 32.0 °F 34% 29.80 in 6.2 mi NNW 21.9 mph 36.8 mph N/A   Unknown
6:00 PM 59.0 °F - 32.0 °F 36% 29.80 in 6.2 mi NW 21.9 mph - N/A   Unknown
6:30 PM 57.2 °F - 32.0 °F 38% 29.83 in 6.2 mi NW 18.4 mph - N/A   Unknown
7:00 PM 53.6 °F - 33.8 °F 47% 29.86 in 6.2 mi NW 17.3 mph - N/A   Unknown
7:30 PM 53.6 °F - 33.8 °F 47% 29.86 in 6.2 mi NW 13.8 mph - N/A   Unknown
8:00 PM 51.8 °F - 35.6 °F 54% 29.89 in 6.2 mi WNW 18.4 mph - N/A   Unknown
8:30 PM 50.0 °F - 35.6 °F 58% 29.89 in 6.2 mi WNW 18.4 mph - N/A   Unknown
9:00 PM 50.0 °F - 35.6 °F 58% 29.92 in 6.2 mi NW 18.4 mph - N/A   Unknown
9:30 PM 48.2 °F - 35.6 °F 62% 29.95 in 6.2 mi NW 13.8 mph - N/A   Unknown
10:00 PM 48.2 °F - 35.6 °F 62% 29.95 in 6.2 mi WNW 12.7 mph - N/A   Unknown
10:30 PM 46.4 °F 40.4 °F 37.4 °F 71% 29.95 in 6.2 mi WNW 13.8 mph - N/A   Unknown
11:00 PM 46.4 °F 41.1 °F 35.6 °F 66% 29.98 in 6.2 mi NW 11.5 mph - N/A   Unknown
11:30 PM 46.4 °F 40.4 °F 35.6 °F 66% 29.98 in 6.2 mi NW 13.8 mph - N/A   Unknown